• en Belgique
  • Liste des pays
  • À 7 jours
  • Température de l'eau
  • Carte satellitaire
  • Carte météo
  • Widgets météo
  • user-avatar
    Se connecter

    Météo par heure à Lezhё

    Ce jour, 25 Février, Dimanche

    Heure Température Précipitation Vent Pression Humidité
    00:00 +3°C° 0 mm 4 m/s 732 mmHg 79%
    01:00 +1°C° 0 mm 5 m/s 732 mmHg 80%
    02:00 +1°C° 0 mm 5 m/s 732 mmHg 79%
    03:00 0°C° 0 mm 5 m/s 732 mmHg 79%
    04:00 0°C° 0 mm 5 m/s 732 mmHg 78%
    05:00 0°C° 0,4 mm 5 m/s 732 mmHg 78%
    06:00 -1°C° 0,4 mm 5 m/s 732 mmHg 77%
    07:00 0°C° 0 mm 5 m/s 732 mmHg 79%
    08:00 -1°C° 1,2 mm 5 m/s 732 mmHg 82%
    09:00 -2°C° 1,2 mm 6 m/s 732 mmHg 85%
    10:00 -2°C° 1,2 mm 6 m/s 732 mmHg 87%
    11:00 -2°C° 0,8 mm 6 m/s 732 mmHg 87%
    12:00 -2°C° 0,8 mm 6 m/s 731 mmHg 87%
    13:00 -2°C° 0 mm 6 m/s 731 mmHg 87%
    14:00 -2°C° 0,7 mm 6 m/s 731 mmHg 87%
    15:00 -3°C° 0,7 mm 6 m/s 731 mmHg 87%
    16:00 -3°C° 0,7 mm 6 m/s 731 mmHg 87%
    17:00 -3°C° 0,8 mm 6 m/s 731 mmHg 87%
    18:00 -4°C° 0,8 mm 6 m/s 730 mmHg 87%
    19:00 -4°C° 0,8 mm 6 m/s 730 mmHg 87%
    20:00 -4°C° 0,6 mm 6 m/s 730 mmHg 86%
    21:00 -6°C° 0,6 mm 7 m/s 730 mmHg 85%
    22:00 -6°C° 0,6 mm 7 m/s 729 mmHg 84%
    23:00 -6°C° 1 mm 7 m/s 729 mmHg 85%

    Demain, 26 Février, Lundi

    Heure Température Précipitation Vent Pression Humidité
    00:00 -6°C° 1 mm 7 m/s 728 mmHg 87%
    01:00 -6°C° 1 mm 7 m/s 728 mmHg 88%
    02:00 -6°C° 1,2 mm 7 m/s 727 mmHg 88%
    03:00 -6°C° 1,2 mm 7 m/s 727 mmHg 88%
    04:00 -6°C° 1,2 mm 7 m/s 727 mmHg 89%
    05:00 -5°C° 0,6 mm 6 m/s 727 mmHg 88%
    06:00 -5°C° 0,6 mm 6 m/s 727 mmHg 88%
    07:00 -5°C° 0,6 mm 6 m/s 727 mmHg 88%
    08:00 -4°C° 0,6 mm 5 m/s 727 mmHg 88%
    09:00 -4°C° 0,6 mm 5 m/s 727 mmHg 88%
    10:00 -2°C° 0,6 mm 5 m/s 727 mmHg 89%
    11:00 -2°C° 0,3 mm 4 m/s 726 mmHg 89%
    12:00 -1°C° 0,3 mm 4 m/s 726 mmHg 89%
    13:00 -1°C° 0,3 mm 4 m/s 725 mmHg 90%
    14:00 -1°C° 0,2 mm 4 m/s 725 mmHg 89%
    15:00 0°C° 0,2 mm 4 m/s 725 mmHg 89%
    16:00 +1°C° 0,2 mm 3 m/s 725 mmHg 88%
    17:00 0°C° 0,7 mm 3 m/s 725 mmHg 89%
    18:00 -1°C° 0,7 mm 3 m/s 725 mmHg 91%
    19:00 -1°C° 0,7 mm 3 m/s 725 mmHg 92%
    20:00 -1°C° 0,5 mm 3 m/s 726 mmHg 92%
    21:00 -1°C° 0,5 mm 3 m/s 726 mmHg 93%
    22:00 -2°C° 0,5 mm 2 m/s 726 mmHg 93%
    23:00 -2°C° 0,4 mm 2 m/s 726 mmHg 93%

    Après-demain, 27 Février, Mardi

    Heure Température Précipitation Vent Pression Humidité
    00:00 -2°C° 0,4 mm 2 m/s 726 mmHg 93%
    01:00 -2°C° 0,4 mm 2 m/s 726 mmHg 93%
    02:00 -2°C° 0,5 mm 2 m/s 727 mmHg 93%
    03:00 -2°C° 0,5 mm 2 m/s 727 mmHg 94%
    04:00 -2°C° 0,5 mm 2 m/s 727 mmHg 94%
    05:00 -2°C° 0,5 mm 2 m/s 727 mmHg 94%
    06:00 -1°C° 0,5 mm 2 m/s 728 mmHg 94%
    07:00 -1°C° 0,5 mm 2 m/s 728 mmHg 94%
    08:00 -1°C° 0,7 mm 2 m/s 729 mmHg 95%
    09:00 0°C° 0,7 mm 3 m/s 729 mmHg 95%
    10:00 -1°C° 0,7 mm 4 m/s 729 mmHg 96%
    11:00 0°C° 0,6 mm 4 m/s 729 mmHg 94%
    12:00 0°C° 0,6 mm 4 m/s 729 mmHg 92%
    13:00 0°C° 0,6 mm 5 m/s 730 mmHg 90%
    14:00 0°C° 0,3 mm 4 m/s 730 mmHg 88%
    15:00 +1°C° 0,3 mm 3 m/s 730 mmHg 87%
    16:00 +2°C° 0,3 mm 2 m/s 730 mmHg 85%
    17:00 +1°C° 0,1 mm 2 m/s 731 mmHg 87%
    18:00 -2°C° 0,1 mm 2 m/s 731 mmHg 88%
    19:00 -3°C° 0,1 mm 2 m/s 731 mmHg 90%
    20:00 -3°C° 0 mm 2 m/s 732 mmHg 88%
    21:00 -3°C° 0 mm 2 m/s 732 mmHg 87%
    22:00 -3°C° 0 mm 2 m/s 732 mmHg 85%
    23:00 -4°C° 0 mm 3 m/s 732 mmHg 84%

    28 Février, Mercredi

    Heure Température Précipitation Vent Pression Humidité
    00:00 -4°C° 0 mm 3 m/s 732 mmHg 83%
    01:00 -4°C° 0 mm 3 m/s 732 mmHg 82%
    02:00 -4°C° 0 mm 3 m/s 731 mmHg 83%
    03:00 -4°C° 0 mm 3 m/s 731 mmHg 83%
    04:00 -4°C° 0 mm 3 m/s 731 mmHg 83%
    05:00 -4°C° 0,1 mm 3 m/s 731 mmHg 84%
    06:00 -4°C° 0,1 mm 3 m/s 731 mmHg 85%
    07:00 -2°C° 0,1 mm 3 m/s 732 mmHg 86%
    08:00 -1°C° 0,2 mm 3 m/s 732 mmHg 85%
    09:00 0°C° 0,2 mm 3 m/s 732 mmHg 85%
    10:00 +1°C° 0,2 mm 3 m/s 732 mmHg 84%
    11:00 +1°C° 0,1 mm 3 m/s 733 mmHg 83%
    12:00 +1°C° 0,1 mm 3 m/s 733 mmHg 82%
    13:00 +2°C° 0,1 mm 3 m/s 734 mmHg 81%
    14:00 +2°C° 0 mm 3 m/s 734 mmHg 79%
    15:00 +2°C° 0 mm 3 m/s 735 mmHg 77%
    16:00 +2°C° 0 mm 3 m/s 735 mmHg 74%
    17:00 0°C° 0 mm 3 m/s 736 mmHg 77%
    18:00 -2°C° 0 mm 3 m/s 737 mmHg 79%
    19:00 -3°C° 0 mm 2 m/s 738 mmHg 82%
    20:00 -4°C° 0 mm 2 m/s 738 mmHg 83%
    21:00 -4°C° 0 mm 2 m/s 739 mmHg 83%
    22:00 -5°C° 0 mm 2 m/s 740 mmHg 84%
    23:00 -5°C° 0 mm 2 m/s 740 mmHg 83%

    1 Mars, Jeudi

    Heure Température Précipitation Vent Pression Humidité
    00:00 -6°C° 0 mm 2 m/s 740 mmHg 83%
    01:00 -6°C° 0 mm 2 m/s 740 mmHg 82%
    02:00 -6°C° 0 mm 2 m/s 740 mmHg 80%
    03:00 -7°C° 0 mm 3 m/s 740 mmHg 78%
    04:00 -7°C° 0 mm 3 m/s 740 mmHg 76%
    05:00 -6°C° 0 mm 3 m/s 739 mmHg 75%
    06:00 -5°C° 0 mm 2 m/s 739 mmHg 74%
    07:00 -4°C° 0 mm 2 m/s 739 mmHg 73%
    08:00 -2°C° 0 mm 2 m/s 739 mmHg 72%
    09:00 +1°C° 0 mm 2 m/s 739 mmHg 71%
    10:00 +3°C° 0 mm 2 m/s 739 mmHg 70%
    11:00 +3°C° 0,1 mm 2 m/s 738 mmHg 73%
    12:00 +4°C° 0,1 mm 2 m/s 738 mmHg 76%
    13:00 +4°C° 0,1 mm 2 m/s 737 mmHg 80%
    14:00 +4°C° 0,2 mm 2 m/s 737 mmHg 81%
    15:00 +4°C° 0,2 mm 2 m/s 737 mmHg 83%
    16:00 +4°C° 0,2 mm 2 m/s 736 mmHg 84%
    17:00 +2°C° 0,1 mm 3 m/s 736 mmHg 85%
    18:00 +2°C° 0,1 mm 3 m/s 736 mmHg 86%
    19:00 +2°C° 0,1 mm 3 m/s 736 mmHg 87%
    20:00 +2°C° 0,1 mm 3 m/s 736 mmHg 88%
    21:00 +3°C° 0,1 mm 3 m/s 735 mmHg 89%
    22:00 +3°C° 0,1 mm 3 m/s 735 mmHg 89%
    23:00 +4°C° 0,3 mm 3 m/s 735 mmHg 91%

    2 Mars, Vendredi

    Heure Température Précipitation Vent Pression Humidité
    00:00 +4°C° 0,3 mm 3 m/s 734 mmHg 92%
    01:00 +4°C° 0,3 mm 3 m/s 734 mmHg 93%
    02:00 +4°C° 0,6 mm 3 m/s 733 mmHg 94%
    03:00 +4°C° 0,6 mm 3 m/s 732 mmHg 95%
    04:00 +4°C° 0,6 mm 3 m/s 732 mmHg 95%
    05:00 +5°C° 1 mm 3 m/s 732 mmHg 95%
    06:00 +5°C° 1 mm 3 m/s 731 mmHg 96%
    07:00 +5°C° 1 mm 3 m/s 731 mmHg 96%
    08:00 +5°C° 0,6 mm 3 m/s 731 mmHg 95%
    09:00 +7°C° 0,6 mm 3 m/s 731 mmHg 95%
    10:00 +7°C° 0,6 mm 3 m/s 731 mmHg 94%
    11:00 +7°C° 0,9 mm 3 m/s 730 mmHg 94%
    12:00 +7°C° 0,9 mm 3 m/s 730 mmHg 94%
    13:00 +8°C° 0,9 mm 3 m/s 730 mmHg 94%
    14:00 +7°C° 1,2 mm 3 m/s 730 mmHg 95%
    15:00 +7°C° 1,2 mm 3 m/s 729 mmHg 95%
    16:00 +7°C° 1,2 mm 2 m/s 729 mmHg 95%
    17:00 +7°C° 0,9 mm 3 m/s 730 mmHg 95%
    18:00 +7°C° 0,9 mm 3 m/s 730 mmHg 95%
    19:00 +7°C° 0,9 mm 3 m/s 730 mmHg 95%
    20:00 +7°C° 0,9 mm 3 m/s 730 mmHg 95%
    21:00 +7°C° 0,9 mm 3 m/s 730 mmHg 95%
    22:00 +7°C° 0,9 mm 3 m/s 730 mmHg 95%
    23:00 +7°C° 0,5 mm 3 m/s 730 mmHg 94%
    Voir plus